PRIVATE WETTERSTATION BILLIGHEIM-ALLFELD                       ZURCK
Wetterdaten: Mittwoch, 29.11.2017
Datum Zeit Temp. A. Temp. A. min Temp. A. max Feuchte A. Luftdruck Regen Wind Richtung Richtung Sonnenschein ET Solar Taupunkt Windchill Windben Empfang
29.11.2017 00:00 2,3 C 2,3 C 2,5 C 91 % 1006,6 hPa 0,0 l/m 3,2 km/h (1 Bft) W-SW 247 0 min 0,000 mm 0 W/m 1,0 C 2,3 C 11,3 km/h (2 Bft) 98 %
29.11.2017 00:10 2,2 C 2,2 C 2,4 C 91 % 1006,5 hPa 0,0 l/m 3,2 km/h (1 Bft) W-SW 247 0 min 0,000 mm 0 W/m 0,9 C 2,2 C 8,0 km/h (2 Bft) 97 %
29.11.2017 00:20 2,1 C 2,1 C 2,2 C 91 % 1006,5 hPa 0,0 l/m 0,0 km/h (0 Bft) W-SW 247 0 min 0,000 mm 0 W/m 0,8 C 2,1 C 8,0 km/h (2 Bft) 97 %
29.11.2017 00:30 1,9 C 1,9 C 2,1 C 91 % 1006,5 hPa 0,0 l/m 3,2 km/h (1 Bft) SW 225 0 min 0,000 mm 0 W/m 0,6 C 1,9 C 8,0 km/h (2 Bft) 89 %
29.11.2017 00:40 1,9 C 1,9 C 2,0 C 91 % 1006,5 hPa 0,0 l/m 4,8 km/h (1 Bft) SW 225 0 min 0,000 mm 0 W/m 0,6 C 1,9 C 14,5 km/h (3 Bft) 96 %
29.11.2017 00:50 1,9 C 1,9 C 1,9 C 91 % 1006,6 hPa 0,0 l/m 4,8 km/h (1 Bft) W-SW 247 0 min 0,000 mm 0 W/m 0,6 C 1,9 C 14,5 km/h (3 Bft) 98 %
29.11.2017 01:00 1,9 C 1,9 C 1,9 C 91 % 1006,6 hPa 0,0 l/m 4,8 km/h (1 Bft) W-NW 292 0 min 0,000 mm 0 W/m 0,6 C 1,9 C 11,3 km/h (2 Bft) 98 %
29.11.2017 01:10 1,8 C 1,8 C 1,9 C 91 % 1006,5 hPa 0,0 l/m 3,2 km/h (1 Bft) W 270 0 min 0,000 mm 0 W/m 0,5 C 1,8 C 11,3 km/h (2 Bft) 100 %
29.11.2017 01:20 1,7 C 1,7 C 1,8 C 91 % 1006,5 hPa 0,0 l/m 1,6 km/h (1 Bft) W 270 0 min 0,000 mm 0 W/m 0,4 C 1,7 C 11,3 km/h (2 Bft) 100 %
29.11.2017 01:30 1,4 C 1,4 C 1,7 C 91 % 1006,3 hPa 0,0 l/m 0,0 km/h (0 Bft) W 270 0 min 0,000 mm 0 W/m 0,1 C 1,4 C 4,8 km/h (1 Bft) 99 %
29.11.2017 01:40 1,3 C 1,3 C 1,5 C 91 % 1006,2 hPa 0,0 l/m 0,0 km/h (0 Bft) N 0 0 min 0,000 mm 0 W/m -0,0 C 1,3 C 0,0 km/h (0 Bft) 100 %
29.11.2017 01:50 1,1 C 1,1 C 1,3 C 91 % 1006,1 hPa 0,0 l/m 0,0 km/h (0 Bft) N 0 0 min 0,000 mm 0 W/m -0,2 C 1,1 C 0,0 km/h (0 Bft) 100 %
29.11.2017 02:00 0,9 C 0,8 C 1,1 C 91 % 1006,1 hPa 0,0 l/m 0,0 km/h (0 Bft) N 0 0 min 0,000 mm 0 W/m -0,4 C 0,9 C 0,0 km/h (0 Bft) 99 %
29.11.2017 02:10 0,8 C 0,8 C 0,9 C 91 % 1006,1 hPa 0,0 l/m 0,0 km/h (0 Bft) N 0 0 min 0,000 mm 0 W/m -0,5 C 0,8 C 0,0 km/h (0 Bft) 99 %
29.11.2017 02:20 0,8 C 0,8 C 0,8 C 91 % 1006,0 hPa 0,0 l/m 0,0 km/h (0 Bft) N 0 0 min 0,000 mm 0 W/m -0,5 C 0,8 C 0,0 km/h (0 Bft) 100 %
29.11.2017 02:30 0,8 C 0,7 C 0,8 C 91 % 1006,0 hPa 0,0 l/m 0,0 km/h (0 Bft) N 0 0 min 0,000 mm 0 W/m -0,5 C 0,8 C 0,0 km/h (0 Bft) 100 %
29.11.2017 02:40 0,6 C 0,6 C 0,7 C 91 % 1006,0 hPa 0,0 l/m 0,0 km/h (0 Bft) N 0 0 min 0,000 mm 0 W/m -0,7 C 0,6 C 0,0 km/h (0 Bft) 98 %
29.11.2017 02:50 0,5 C 0,4 C 0,6 C 91 % 1005,9 hPa 0,0 l/m 0,0 km/h (0 Bft) N 0 0 min 0,000 mm 0 W/m -0,8 C 0,5 C 0,0 km/h (0 Bft) 99 %
29.11.2017 03:00 0,2 C 0,2 C 0,5 C 91 % 1005,9 hPa 0,0 l/m 0,0 km/h (0 Bft) N 0 0 min 0,000 mm 0 W/m -1,1 C 0,2 C 0,0 km/h (0 Bft) 98 %
29.11.2017 03:10 0,7 C 0,2 C 0,7 C 91 % 1005,9 hPa 0,0 l/m 0,0 km/h (0 Bft) N 0 0 min 0,000 mm 0 W/m -0,6 C 0,7 C 0,0 km/h (0 Bft) 98 %
29.11.2017 03:20 0,7 C 0,7 C 0,7 C 91 % 1005,9 hPa 0,0 l/m 0,0 km/h (0 Bft) N 0 0 min 0,000 mm 0 W/m -0,6 C 0,7 C 0,0 km/h (0 Bft) 98 %
29.11.2017 03:30 0,8 C 0,7 C 0,9 C 91 % 1005,8 hPa 0,0 l/m 0,0 km/h (0 Bft) N 0 0 min 0,000 mm 0 W/m -0,5 C 0,8 C 0,0 km/h (0 Bft) 90 %
29.11.2017 03:40 1,1 C 0,9 C 1,1 C 91 % 1005,8 hPa 0,0 l/m 0,0 km/h (0 Bft) S 180 0 min 0,000 mm 0 W/m -0,2 C 1,1 C 1,6 km/h (1 Bft) 99 %
29.11.2017 03:50 1,1 C 1,1 C 1,1 C 91 % 1005,8 hPa 0,0 l/m 0,0 km/h (0 Bft) N 0 0 min 0,000 mm 0 W/m -0,2 C 1,1 C 0,0 km/h (0 Bft) 97 %
29.11.2017 04:00 1,0 C 0,9 C 1,1 C 91 % 1005,7 hPa 0,0 l/m 0,0 km/h (0 Bft) N 0 0 min 0,000 mm 0 W/m -0,3 C 1,0 C 0,0 km/h (0 Bft) 99 %
29.11.2017 04:10 1,3 C 1,0 C 1,3 C 91 % 1005,5 hPa 0,0 l/m 1,6 km/h (1 Bft) SO 135 0 min 0,000 mm 0 W/m -0,0 C 1,3 C 4,8 km/h (1 Bft) 100 %
29.11.2017 04:20 1,4 C 1,3 C 1,4 C 91 % 1005,4 hPa 0,0 l/m 1,6 km/h (1 Bft) SO 135 0 min 0,000 mm 0 W/m 0,1 C 1,4 C 3,2 km/h (1 Bft) 100 %
29.11.2017 04:30 1,4 C 1,4 C 1,4 C 91 % 1005,4 hPa 0,0 l/m 0,0 km/h (0 Bft) N 0 0 min 0,000 mm 0 W/m 0,1 C 1,4 C 0,0 km/h (0 Bft) 100 %
29.11.2017 04:40 1,4 C 1,4 C 1,4 C 91 % 1005,4 hPa 0,0 l/m 0,0 km/h (0 Bft) N 0 0 min 0,000 mm 0 W/m 0,1 C 1,4 C 0,0 km/h (0 Bft) 100 %
29.11.2017 04:50 0,9 C 0,9 C 1,4 C 91 % 1005,4 hPa 0,0 l/m 0,0 km/h (0 Bft) N 0 0 min 0,000 mm 0 W/m -0,4 C 0,9 C 0,0 km/h (0 Bft) 100 %
29.11.2017 05:00 1,0 C 0,9 C 1,0 C 91 % 1005,3 hPa 0,0 l/m 0,0 km/h (0 Bft) N 0 0 min 0,000 mm 0 W/m -0,3 C 1,0 C 0,0 km/h (0 Bft) 99 %
29.11.2017 05:10 1,2 C 1,1 C 1,2 C 91 % 1005,3 hPa 0,0 l/m 0,0 km/h (0 Bft) N 0 0 min 0,000 mm 0 W/m -0,1 C 1,2 C 0,0 km/h (0 Bft) 100 %
29.11.2017 05:20 1,0 C 1,0 C 1,2 C 91 % 1005,2 hPa 0,0 l/m 0,0 km/h (0 Bft) N 0 0 min 0,000 mm 0 W/m -0,3 C 1,0 C 0,0 km/h (0 Bft) 99 %
29.11.2017 05:30 1,0 C 0,9 C 1,0 C 91 % 1005,0 hPa 0,0 l/m 0,0 km/h (0 Bft) N 0 0 min 0,000 mm 0 W/m -0,3 C 1,0 C 0,0 km/h (0 Bft) 100 %
29.11.2017 05:40 1,1 C 1,0 C 1,1 C 91 % 1005,1 hPa 0,0 l/m 0,0 km/h (0 Bft) N 0 0 min 0,000 mm 0 W/m -0,2 C 1,1 C 0,0 km/h (0 Bft) 100 %
29.11.2017 05:50 1,1 C 1,0 C 1,1 C 91 % 1004,9 hPa 0,0 l/m 0,0 km/h (0 Bft) N 0 0 min 0,000 mm 0 W/m -0,2 C 1,1 C 0,0 km/h (0 Bft) 100 %
29.11.2017 06:00 1,2 C 1,1 C 1,2 C 91 % 1005,0 hPa 0,0 l/m 0,0 km/h (0 Bft) N 0 0 min 0,000 mm 0 W/m -0,1 C 1,2 C 0,0 km/h (0 Bft) 99 %
29.11.2017 06:10 1,3 C 1,1 C 1,3 C 91 % 1005,0 hPa 0,0 l/m 0,0 km/h (0 Bft) N 0 0 min 0,000 mm 0 W/m -0,0 C 1,3 C 0,0 km/h (0 Bft) 100 %
29.11.2017 06:20 1,4 C 1,3 C 1,4 C 91 % 1004,9 hPa 0,0 l/m 0,0 km/h (0 Bft) N 0 0 min 0,000 mm 0 W/m 0,1 C 1,4 C 0,0 km/h (0 Bft) 100 %
29.11.2017 06:30 1,3 C 1,3 C 1,4 C 91 % 1005,0 hPa 0,0 l/m 0,0 km/h (0 Bft) N 0 0 min 0,000 mm 0 W/m -0,0 C 1,3 C 0,0 km/h (0 Bft) 99 %
29.11.2017 06:40 1,3 C 1,3 C 1,3 C 91 % 1005,0 hPa 0,0 l/m 0,0 km/h (0 Bft) N 0 0 min 0,000 mm 0 W/m -0,0 C 1,3 C 0,0 km/h (0 Bft) 100 %
29.11.2017 06:50 1,4 C 1,3 C 1,4 C 91 % 1005,0 hPa 0,0 l/m 0,0 km/h (0 Bft) N 0 0 min 0,000 mm 0 W/m 0,1 C 1,4 C 0,0 km/h (0 Bft) 98 %
29.11.2017 07:00 1,5 C 1,4 C 1,5 C 91 % 1005,1 hPa 0,0 l/m 3,2 km/h (1 Bft) S-SO 157 0 min 0,000 mm 0 W/m 0,2 C 1,5 C 6,4 km/h (2 Bft) 100 %
29.11.2017 07:10 1,6 C 1,4 C 1,6 C 91 % 1005,1 hPa 0,0 l/m 1,6 km/h (1 Bft) S-SO 157 0 min 0,000 mm 0 W/m 0,3 C 1,6 C 4,8 km/h (1 Bft) 99 %
29.11.2017 07:20 1,6 C 1,6 C 1,6 C 91 % 1005,2 hPa 0,0 l/m 0,0 km/h (0 Bft) N 0 0 min 0,000 mm 0 W/m 0,3 C 1,6 C 0,0 km/h (0 Bft) 100 %
29.11.2017 07:30 1,5 C 1,5 C 1,6 C 91 % 1005,2 hPa 0,0 l/m 0,0 km/h (0 Bft) S-SO 157 0 min 0,000 mm 0 W/m 0,2 C 1,5 C 4,8 km/h (1 Bft) 100 %
29.11.2017 07:40 1,7 C 1,5 C 1,7 C 91 % 1005,2 hPa 0,0 l/m 1,6 km/h (1 Bft) S-SO 157 0 min 0,000 mm 0 W/m 0,4 C 1,7 C 4,8 km/h (1 Bft) 99 %
29.11.2017 07:50 1,7 C 1,7 C 1,7 C 91 % 1005,1 hPa 0,2 l/m 0,0 km/h (0 Bft) N 0 0 min 0,000 mm 0 W/m 0,4 C 1,7 C 0,0 km/h (0 Bft) 100 %
29.11.2017 08:00 1,7 C 1,7 C 1,8 C 91 % 1005,4 hPa 0,0 l/m 0,0 km/h (0 Bft) N 0 0 min 0,000 mm 0 W/m 0,4 C 1,7 C 0,0 km/h (0 Bft) 98 %
29.11.2017 08:10 1,7 C 1,7 C 1,7 C 91 % 1005,4 hPa 0,0 l/m 0,0 km/h (0 Bft) N 0 0 min 0,000 mm 0 W/m 0,4 C 1,7 C 0,0 km/h (0 Bft) 99 %
29.11.2017 08:20 1,8 C 1,7 C 1,8 C 91 % 1005,5 hPa 0,0 l/m 0,0 km/h (0 Bft) N 0 0 min 0,000 mm 5 W/m 0,5 C 1,8 C 0,0 km/h (0 Bft) 99 %
29.11.2017 08:30 1,8 C 1,8 C 1,8 C 91 % 1005,5 hPa 0,0 l/m 1,6 km/h (1 Bft) S-SO 157 0 min 0,000 mm 7 W/m 0,5 C 1,8 C 4,8 km/h (1 Bft) 100 %
29.11.2017 08:40 1,8 C 1,8 C 1,8 C 91 % 1005,6 hPa 0,0 l/m 3,2 km/h (1 Bft) S-SO 157 0 min 0,000 mm 7 W/m 0,5 C 1,8 C 6,4 km/h (2 Bft) 100 %
29.11.2017 08:50 1,8 C 1,8 C 1,8 C 91 % 1005,7 hPa 0,0 l/m 1,6 km/h (1 Bft) S-SO 157 0 min 0,000 mm 5 W/m 0,5 C 1,8 C 6,4 km/h (2 Bft) 100 %
29.11.2017 09:00 1,8 C 1,8 C 1,8 C 91 % 1005,8 hPa 0,0 l/m 1,6 km/h (1 Bft) S-SO 157 0 min 0,000 mm 14 W/m 0,5 C 1,8 C 8,0 km/h (2 Bft) 100 %
29.11.2017 09:10 1,7 C 1,7 C 1,8 C 91 % 1005,7 hPa 0,2 l/m 3,2 km/h (1 Bft) S-SO 157 0 min 0,000 mm 18 W/m 0,4 C 1,7 C 8,0 km/h (2 Bft) 100 %
29.11.2017 09:20 1,7 C 1,7 C 1,8 C 91 % 1005,7 hPa 0,0 l/m 1,6 km/h (1 Bft) S-SO 157 0 min 0,000 mm 42 W/m 0,4 C 1,7 C 6,4 km/h (2 Bft) 100 %
29.11.2017 09:30 1,8 C 1,7 C 1,8 C 91 % 1005,7 hPa 0,2 l/m 1,6 km/h (1 Bft) S-SO 157 0 min 0,000 mm 42 W/m 0,5 C 1,8 C 4,8 km/h (1 Bft) 100 %
29.11.2017 09:40 1,9 C 1,8 C 1,9 C 91 % 1005,7 hPa 0,0 l/m 3,2 km/h (1 Bft) S 180 0 min 0,000 mm 35 W/m 0,6 C 1,9 C 6,4 km/h (2 Bft) 100 %
29.11.2017 09:50 1,9 C 1,9 C 1,9 C 91 % 1005,8 hPa 0,0 l/m 3,2 km/h (1 Bft) S 180 0 min 0,000 mm 53 W/m 0,6 C 1,9 C 8,0 km/h (2 Bft) 100 %
29.11.2017 10:00 1,8 C 1,8 C 1,9 C 91 % 1005,8 hPa 0,2 l/m 3,2 km/h (1 Bft) S 180 0 min 0,025 mm 54 W/m 0,5 C 1,8 C 6,4 km/h (2 Bft) 100 %
29.11.2017 10:10 1,8 C 1,8 C 1,8 C 91 % 1005,9 hPa 0,2 l/m 4,8 km/h (1 Bft) S 180 0 min 0,000 mm 60 W/m 0,5 C 1,8 C 11,3 km/h (2 Bft) 100 %
29.11.2017 10:20 1,7 C 1,7 C 1,8 C 91 % 1005,9 hPa 0,0 l/m 1,6 km/h (1 Bft) S-SW 202 0 min 0,000 mm 40 W/m 0,4 C 1,7 C 8,0 km/h (2 Bft) 100 %
29.11.2017 10:30 1,8 C 1,7 C 1,8 C 91 % 1005,9 hPa 0,0 l/m 1,6 km/h (1 Bft) S-SW 202 0 min 0,000 mm 35 W/m 0,5 C 1,8 C 6,4 km/h (2 Bft) 100 %
29.11.2017 10:40 1,8 C 1,8 C 1,8 C 91 % 1005,8 hPa 0,0 l/m 4,8 km/h (1 Bft) S-SW 202 0 min 0,000 mm 47 W/m 0,5 C 1,8 C 9,7 km/h (2 Bft) 100 %
29.11.2017 10:50 1,8 C 1,8 C 1,8 C 91 % 1005,8 hPa 0,0 l/m 3,2 km/h (1 Bft) S-SW 202 0 min 0,000 mm 53 W/m 0,5 C 1,8 C 9,7 km/h (2 Bft) 100 %
29.11.2017 11:00 1,9 C 1,8 C 1,9 C 91 % 1005,9 hPa 0,0 l/m 6,4 km/h (2 Bft) S-SW 202 0 min 0,025 mm 40 W/m 0,6 C 1,9 C 14,5 km/h (3 Bft) 100 %
29.11.2017 11:10 1,8 C 1,8 C 1,9 C 91 % 1005,9 hPa 0,0 l/m 4,8 km/h (1 Bft) SW 225 0 min 0,000 mm 63 W/m 0,5 C 1,8 C 17,7 km/h (3 Bft) 100 %
29.11.2017 11:20 1,9 C 1,8 C 1,9 C 91 % 1005,8 hPa 0,0 l/m 6,4 km/h (2 Bft) W-SW 247 0 min 0,000 mm 49 W/m 0,6 C 1,9 C 14,5 km/h (3 Bft) 100 %
29.11.2017 11:30 1,8 C 1,8 C 1,9 C 91 % 1005,9 hPa 0,0 l/m 1,6 km/h (1 Bft) SW 225 0 min 0,000 mm 40 W/m 0,5 C 1,8 C 11,3 km/h (2 Bft) 100 %
29.11.2017 11:40 1,9 C 1,8 C 1,9 C 91 % 1005,7 hPa 0,0 l/m 0,0 km/h (0 Bft) SW 225 0 min 0,000 mm 35 W/m 0,6 C 1,9 C 4,8 km/h (1 Bft) 100 %
29.11.2017 11:50 1,9 C 1,9 C 1,9 C 91 % 1005,8 hPa 0,0 l/m 1,6 km/h (1 Bft) SW 225 0 min 0,000 mm 42 W/m 0,6 C 1,9 C 8,0 km/h (2 Bft) 100 %
29.11.2017 12:00 1,9 C 1,9 C 1,9 C 91 % 1005,8 hPa 0,0 l/m 1,6 km/h (1 Bft) SW 225 0 min 0,025 mm 37 W/m 0,6 C 1,9 C 6,4 km/h (2 Bft) 100 %
29.11.2017 12:10 1,9 C 1,9 C 1,9 C 91 % 1005,6 hPa 0,0 l/m 1,6 km/h (1 Bft) SW 225 0 min 0,000 mm 90 W/m 0,6 C 1,9 C 9,7 km/h (2 Bft) 100 %
29.11.2017 12:20 2,1 C 1,9 C 2,1 C 91 % 1005,5 hPa 0,0 l/m 1,6 km/h (1 Bft) SW 225 0 min 0,000 mm 123 W/m 0,8 C 2,1 C 6,4 km/h (2 Bft) 100 %
29.11.2017 12:30 2,3 C 2,1 C 2,3 C 91 % 1005,5 hPa 0,0 l/m 0,0 km/h (0 Bft) N 0 10 min 0,000 mm 172 W/m 1,0 C 2,3 C 0,0 km/h (0 Bft) 100 %
29.11.2017 12:40 2,3 C 2,3 C 2,3 C 91 % 1005,5 hPa 0,0 l/m 0,0 km/h (0 Bft) N 0 0 min 0,000 mm 116 W/m 1,0 C 2,3 C 0,0 km/h (0 Bft) 100 %
29.11.2017 12:50 2,4 C 2,3 C 2,4 C 91 % 1005,7 hPa 0,0 l/m 3,2 km/h (1 Bft) W 270 0 min 0,000 mm 40 W/m 1,1 C 2,4 C 11,3 km/h (2 Bft) 100 %
29.11.2017 13:00 2,3 C 2,3 C 2,4 C 91 % 1005,6 hPa 0,0 l/m 4,8 km/h (1 Bft) NW 315 0 min 0,025 mm 39 W/m 1,0 C 2,3 C 9,7 km/h (2 Bft) 100 %
29.11.2017 13:10 2,3 C 2,3 C 2,3 C 91 % 1005,6 hPa 0,0 l/m 1,6 km/h (1 Bft) NW 315 0 min 0,000 mm 51 W/m 1,0 C 2,3 C 6,4 km/h (2 Bft) 100 %
29.11.2017 13:20 2,3 C 2,3 C 2,3 C 91 % 1005,5 hPa 0,0 l/m 0,0 km/h (0 Bft) N 0 0 min 0,000 mm 49 W/m 1,0 C 2,3 C 0,0 km/h (0 Bft) 100 %
29.11.2017 13:30 2,3 C 2,3 C 2,3 C 91 % 1005,5 hPa 0,0 l/m 0,0 km/h (0 Bft) N 0 0 min 0,000 mm 54 W/m 1,0 C 2,3 C 0,0 km/h (0 Bft) 100 %
29.11.2017 13:40 2,3 C 2,3 C 2,3 C 91 % 1005,5 hPa 0,0 l/m 0,0 km/h (0 Bft) N 0 0 min 0,000 mm 44 W/m 1,0 C 2,3 C 0,0 km/h (0 Bft) 100 %
29.11.2017 13:50 2,5 C 2,3 C 2,5 C 91 % 1005,5 hPa 0,0 l/m 0,0 km/h (0 Bft) N 0 0 min 0,000 mm 86 W/m 1,2 C 2,5 C 0,0 km/h (0 Bft) 100 %
29.11.2017 14:00 2,6 C 2,5 C 2,6 C 91 % 1005,4 hPa 0,0 l/m 0,0 km/h (0 Bft) N 0 0 min 0,025 mm 81 W/m 1,3 C 2,6 C 0,0 km/h (0 Bft) 100 %
29.11.2017 14:10 2,7 C 2,6 C 2,7 C 91 % 1005,4 hPa 0,0 l/m 0,0 km/h (0 Bft) N 0 0 min 0,000 mm 98 W/m 1,4 C 2,7 C 0,0 km/h (0 Bft) 100 %
29.11.2017 14:20 2,8 C 2,7 C 2,8 C 91 % 1005,4 hPa 0,0 l/m 0,0 km/h (0 Bft) NW 315 0 min 0,000 mm 107 W/m 1,5 C 2,8 C 3,2 km/h (1 Bft) 100 %
29.11.2017 14:30 2,8 C 2,8 C 2,8 C 91 % 1005,3 hPa 0,0 l/m 0,0 km/h (0 Bft) N 0 0 min 0,000 mm 97 W/m 1,5 C 2,8 C 0,0 km/h (0 Bft) 100 %
29.11.2017 14:40 2,8 C 2,8 C 2,8 C 91 % 1005,4 hPa 0,0 l/m 1,6 km/h (1 Bft) W-NW 292 0 min 0,000 mm 67 W/m 1,5 C 2,8 C 4,8 km/h (1 Bft) 100 %
29.11.2017 14:50 2,8 C 2,7 C 2,8 C 91 % 1005,5 hPa 0,0 l/m 1,6 km/h (1 Bft) W-NW 292 0 min 0,000 mm 60 W/m 1,5 C 2,8 C 6,4 km/h (2 Bft) 100 %
29.11.2017 15:00 2,8 C 2,7 C 2,8 C 91 % 1005,5 hPa 0,0 l/m 0,0 km/h (0 Bft) W 270 0 min 0,025 mm 62 W/m 1,5 C 2,8 C 3,2 km/h (1 Bft) 100 %
29.11.2017 15:10 2,8 C 2,8 C 2,8 C 91 % 1005,5 hPa 0,0 l/m 1,6 km/h (1 Bft) SW 225 0 min 0,000 mm 40 W/m 1,5 C 2,8 C 6,4 km/h (2 Bft) 100 %
29.11.2017 15:20 2,8 C 2,8 C 2,8 C 91 % 1005,5 hPa 0,0 l/m 0,0 km/h (0 Bft) N 0 0 min 0,000 mm 72 W/m 1,5 C 2,8 C 0,0 km/h (0 Bft) 89 %
29.11.2017 15:30 2,8 C 2,8 C 2,8 C 91 % 1005,6 hPa 0,0 l/m 0,0 km/h (0 Bft) SW 225 0 min 0,000 mm 74 W/m 1,5 C 2,8 C 1,6 km/h (1 Bft) 100 %
29.11.2017 15:40 2,8 C 2,8 C 2,8 C 91 % 1005,6 hPa 0,0 l/m 0,0 km/h (0 Bft) N 0 0 min 0,000 mm 53 W/m 1,5 C 2,8 C 0,0 km/h (0 Bft) 100 %
29.11.2017 15:50 2,8 C 2,8 C 2,8 C 91 % 1005,7 hPa 0,0 l/m 0,0 km/h (0 Bft) N 0 0 min 0,000 mm 42 W/m 1,5 C 2,8 C 0,0 km/h (0 Bft) 100 %
29.11.2017 16:00 2,8 C 2,8 C 2,8 C 91 % 1005,7 hPa 0,0 l/m 0,0 km/h (0 Bft) N 0 0 min 0,025 mm 47 W/m 1,5 C 2,8 C 0,0 km/h (0 Bft) 99 %
29.11.2017 16:10 2,6 C 2,6 C 2,8 C 91 % 1005,7 hPa 0,0 l/m 0,0 km/h (0 Bft) N 0 0 min 0,000 mm 18 W/m 1,3 C 2,6 C 0,0 km/h (0 Bft) 100 %
29.11.2017 16:20 2,3 C 2,3 C 2,6 C 91 % 1005,6 hPa 0,0 l/m 0,0 km/h (0 Bft) N 0 0 min 0,000 mm 7 W/m 1,0 C 2,3 C 0,0 km/h (0 Bft) 100 %
29.11.2017 16:30 2,1 C 2,1 C 2,3 C 91 % 1005,6 hPa 0,0 l/m 0,0 km/h (0 Bft) N 0 0 min 0,000 mm 0 W/m 0,8 C 2,1 C 0,0 km/h (0 Bft) 99 %
29.11.2017 16:40 1,8 C 1,8 C 2,1 C 91 % 1005,6 hPa 0,0 l/m 0,0 km/h (0 Bft) N 0 0 min 0,000 mm 0 W/m 0,5 C 1,8 C 0,0 km/h (0 Bft) 100 %
29.11.2017 16:50 1,7 C 1,7 C 1,8 C 91 % 1005,7 hPa 0,0 l/m 0,0 km/h (0 Bft) N 0 0 min 0,000 mm 0 W/m 0,4 C 1,7 C 0,0 km/h (0 Bft) 100 %
29.11.2017 17:00 1,4 C 1,4 C 1,6 C 91 % 1005,7 hPa 0,0 l/m 0,0 km/h (0 Bft) N 0 0 min 0,000 mm 0 W/m 0,1 C 1,4 C 0,0 km/h (0 Bft) 100 %
29.11.2017 17:10 1,2 C 1,2 C 1,4 C 91 % 1005,7 hPa 0,0 l/m 0,0 km/h (0 Bft) N 0 0 min 0,000 mm 0 W/m -0,1 C 1,2 C 0,0 km/h (0 Bft) 100 %
29.11.2017 17:20 1,0 C 1,0 C 1,2 C 91 % 1005,7 hPa 0,0 l/m 0,0 km/h (0 Bft) N 0 0 min 0,000 mm 0 W/m -0,3 C 1,0 C 0,0 km/h (0 Bft) 100 %
29.11.2017 17:30 0,9 C 0,8 C 1,0 C 91 % 1005,8 hPa 0,0 l/m 0,0 km/h (0 Bft) N 0 0 min 0,000 mm 0 W/m -0,4 C 0,9 C 0,0 km/h (0 Bft) 100 %
29.11.2017 17:40 0,6 C 0,6 C 0,8 C 91 % 1005,9 hPa 0,0 l/m 0,0 km/h (0 Bft) N 0 0 min 0,000 mm 0 W/m -0,7 C 0,6 C 0,0 km/h (0 Bft) 100 %
29.11.2017 17:50 0,6 C 0,6 C 0,6 C 91 % 1006,0 hPa 0,0 l/m 0,0 km/h (0 Bft) N 0 0 min 0,000 mm 0 W/m -0,7 C 0,6 C 0,0 km/h (0 Bft) 100 %
29.11.2017 18:10 0,5 C 0,5 C 0,6 C 91 % 1006,0 hPa 0,0 l/m 0,0 km/h (0 Bft) SW 223 0 min 0,003 mm 0 W/m -0,8 C 0,5 C 0,0 km/h (0 Bft) 99 %
29.11.2017 18:20 0,4 C 0,4 C 0,5 C 91 % 1006,0 hPa 0,0 l/m 1,2 km/h (1 Bft) SW 223 0 min 0,000 mm 0 W/m -0,9 C 0,4 C 3,2 km/h (1 Bft) 100 %
29.11.2017 18:30 0,3 C 0,3 C 0,4 C 91 % 1006,0 hPa 0,0 l/m 0,0 km/h (0 Bft) SW 223 0 min 0,000 mm 0 W/m -1,0 C 0,3 C 0,0 km/h (0 Bft) 100 %
29.11.2017 18:40 0,3 C 0,3 C 0,3 C 91 % 1006,2 hPa 0,0 l/m 0,0 km/h (0 Bft) SW 223 0 min 0,000 mm 0 W/m -1,0 C 0,3 C 0,0 km/h (0 Bft) 100 %
29.11.2017 18:50 0,2 C 0,2 C 0,3 C 91 % 1006,0 hPa 0,0 l/m 0,0 km/h (0 Bft) SW 223 0 min 0,000 mm 0 W/m -1,1 C 0,2 C 0,0 km/h (0 Bft) 100 %
29.11.2017 19:00 0,2 C 0,2 C 0,3 C 91 % 1006,1 hPa 0,0 l/m 0,0 km/h (0 Bft) SW 223 0 min 0,000 mm 0 W/m -1,1 C 0,2 C 0,0 km/h (0 Bft) 100 %
29.11.2017 19:10 0,3 C 0,2 C 0,3 C 91 % 1006,2 hPa 0,0 l/m 1,2 km/h (1 Bft) SW 221 0 min 0,000 mm 0 W/m -1,0 C 0,3 C 4,8 km/h (1 Bft) 99 %
29.11.2017 19:20 0,3 C 0,3 C 0,3 C 91 % 1006,1 hPa 0,0 l/m 1,2 km/h (1 Bft) SW 221 0 min 0,000 mm 0 W/m -1,0 C 0,3 C 4,8 km/h (1 Bft) 100 %
29.11.2017 19:30 0,2 C 0,2 C 0,3 C 91 % 1006,3 hPa 0,0 l/m 0,0 km/h (0 Bft) SW 221 0 min 0,000 mm 0 W/m -1,1 C 0,2 C 0,0 km/h (0 Bft) 100 %
29.11.2017 19:40 0,0 C 0,0 C 0,2 C 91 % 1006,2 hPa 0,0 l/m 0,0 km/h (0 Bft) SW 221 0 min 0,000 mm 0 W/m -1,3 C 0,0 C 0,0 km/h (0 Bft) 100 %
29.11.2017 19:50 -0,2 C -0,2 C 0,0 C 91 % 1006,2 hPa 0,0 l/m 0,0 km/h (0 Bft) SW 221 0 min 0,000 mm 0 W/m -1,5 C -0,2 C 0,0 km/h (0 Bft) 100 %
29.11.2017 20:00 -0,2 C -0,2 C -0,2 C 91 % 1006,3 hPa 0,0 l/m 0,0 km/h (0 Bft) SW 221 0 min 0,000 mm 0 W/m -1,5 C -0,2 C 0,0 km/h (0 Bft) 100 %
29.11.2017 20:10 -0,3 C -0,3 C -0,2 C 91 % 1006,3 hPa 0,0 l/m 0,0 km/h (0 Bft) SW 221 0 min 0,000 mm 0 W/m -1,6 C -0,3 C 0,0 km/h (0 Bft) 100 %
29.11.2017 20:20 -0,4 C -0,4 C -0,3 C 91 % 1006,4 hPa 0,0 l/m 0,0 km/h (0 Bft) SW 221 0 min 0,000 mm 0 W/m -1,7 C -0,4 C 0,0 km/h (0 Bft) 100 %
29.11.2017 20:30 -0,4 C -0,4 C -0,4 C 91 % 1006,4 hPa 0,0 l/m 0,0 km/h (0 Bft) SW 221 0 min 0,000 mm 0 W/m -1,7 C -0,4 C 0,0 km/h (0 Bft) 100 %
29.11.2017 20:40 -0,4 C -0,4 C -0,3 C 91 % 1006,4 hPa 0,0 l/m 0,0 km/h (0 Bft) SW 221 0 min 0,000 mm 0 W/m -1,7 C -0,4 C 0,0 km/h (0 Bft) 100 %
29.11.2017 20:50 -0,6 C -0,6 C -0,4 C 91 % 1006,3 hPa 0,0 l/m 0,0 km/h (0 Bft) SW 221 0 min 0,000 mm 0 W/m -1,9 C -0,6 C 0,0 km/h (0 Bft) 100 %
29.11.2017 21:00 -0,8 C -0,8 C -0,6 C 91 % 1006,4 hPa 0,0 l/m 0,0 km/h (0 Bft) SW 221 0 min 0,000 mm 0 W/m -2,1 C -0,8 C 0,0 km/h (0 Bft) 100 %
29.11.2017 21:10 -1,0 C -1,0 C -0,7 C 91 % 1006,2 hPa 0,0 l/m 0,0 km/h (0 Bft) N 0 0 min 0,000 mm 0 W/m -2,3 C -1,0 C 0,0 km/h (0 Bft) 100 %
29.11.2017 21:20 -1,2 C -1,2 C -1,0 C 91 % 1006,5 hPa 0,0 l/m 0,0 km/h (0 Bft) N 0 0 min 0,000 mm 0 W/m -2,5 C -1,2 C 0,0 km/h (0 Bft) 100 %
29.11.2017 21:30 -1,1 C -1,3 C -1,1 C 91 % 1006,4 hPa 0,0 l/m 0,0 km/h (0 Bft) N 0 0 min 0,000 mm 0 W/m -2,4 C -1,1 C 0,0 km/h (0 Bft) 100 %
29.11.2017 21:40 -0,7 C -1,1 C -0,7 C 91 % 1006,4 hPa 0,0 l/m 0,0 km/h (0 Bft) SW 225 0 min 0,000 mm 0 W/m -2,0 C -0,7 C 1,6 km/h (1 Bft) 100 %
29.11.2017 21:50 -0,7 C -0,7 C -0,6 C 91 % 1006,5 hPa 0,0 l/m 0,0 km/h (0 Bft) N 0 0 min 0,000 mm 0 W/m -2,0 C -0,7 C 0,0 km/h (0 Bft) 100 %
29.11.2017 22:00 -0,7 C -0,7 C -0,6 C 91 % 1006,5 hPa 0,0 l/m 0,0 km/h (0 Bft) N 0 0 min 0,000 mm 0 W/m -2,0 C -0,7 C 0,0 km/h (0 Bft) 99 %
29.11.2017 22:10 -0,7 C -0,7 C -0,6 C 91 % 1006,5 hPa 0,0 l/m 1,6 km/h (1 Bft) SW 225 0 min 0,000 mm 0 W/m -2,0 C -0,7 C 4,8 km/h (1 Bft) 100 %
29.11.2017 22:20 -0,7 C -0,7 C -0,7 C 91 % 1006,5 hPa 0,0 l/m 1,6 km/h (1 Bft) SW 225 0 min 0,000 mm 0 W/m -2,0 C -0,7 C 4,8 km/h (1 Bft) 100 %
29.11.2017 22:30 -0,8 C -0,8 C -0,7 C 91 % 1006,5 hPa 0,0 l/m 0,0 km/h (0 Bft) N 0 0 min 0,000 mm 0 W/m -2,1 C -0,8 C 0,0 km/h (0 Bft) 100 %
29.11.2017 22:40 -0,9 C -0,9 C -0,8 C 91 % 1006,4 hPa 0,0 l/m 0,0 km/h (0 Bft) N 0 0 min 0,000 mm 0 W/m -2,2 C -0,9 C 0,0 km/h (0 Bft) 100 %
29.11.2017 22:50 -1,3 C -1,3 C -0,9 C 91 % 1006,4 hPa 0,0 l/m 0,0 km/h (0 Bft) N 0 0 min 0,000 mm 0 W/m -2,6 C -1,3 C 0,0 km/h (0 Bft) 100 %
29.11.2017 23:00 -1,6 C -1,6 C -1,3 C 91 % 1006,4 hPa 0,0 l/m 0,0 km/h (0 Bft) N 0 0 min 0,000 mm 0 W/m -2,9 C -1,6 C 0,0 km/h (0 Bft) 100 %
29.11.2017 23:10 -1,6 C -1,7 C -1,6 C 91 % 1006,4 hPa 0,0 l/m 0,0 km/h (0 Bft) N 0 0 min 0,000 mm 0 W/m -2,9 C -1,6 C 0,0 km/h (0 Bft) 100 %
29.11.2017 23:20 -1,7 C -1,7 C -1,7 C 91 % 1006,3 hPa 0,0 l/m 0,0 km/h (0 Bft) N 0 0 min 0,000 mm 0 W/m -3,0 C -1,7 C 0,0 km/h (0 Bft) 100 %
29.11.2017 23:30 -1,7 C -1,7 C -1,7 C 91 % 1006,4 hPa 0,0 l/m 0,0 km/h (0 Bft) N 0 0 min 0,000 mm 0 W/m -3,0 C -1,7 C 0,0 km/h (0 Bft) 100 %
29.11.2017 23:40 -1,2 C -1,7 C -1,2 C 91 % 1006,3 hPa 0,0 l/m 0,0 km/h (0 Bft) N 0 0 min 0,000 mm 0 W/m -2,5 C -1,2 C 0,0 km/h (0 Bft) 100 %
29.11.2017 23:50 -1,2 C -1,2 C -1,1 C 91 % 1006,2 hPa 0,0 l/m 0,0 km/h (0 Bft) SW 225 0 min 0,000 mm 0 W/m -2,5 C -1,2 C 4,8 km/h (1 Bft) 100 %
_ Min-Zeit 23:10 23:10 23:20 00:00 05:50 - 00:20 - - - - - 23:20 23:20 01:40 15:20
Minimum _ -1,7 C -1,7 C -1,7 C 91 % 1004,9 hPa - 0,0 km/h (0 Bft) - - - - - -3,0 C -1,7 C 0,0 km/h (0 Bft) 89 %
_ Max-Zeit 14:20 14:30 14:20 00:00 00:00 07:50 11:00 - - 12:30 10:00 12:30 14:20 14:20 11:10 01:10
Maximum _ 2,8 C 2,8 C 2,8 C 91 % 1006,6 hPa 0,2 l/m 6,4 km/h
S-SW (2 Bft)
- - 10 min 0,025 mm 172 W/m 1,5 C 2,8 C 17,7 km/h
SW (3 Bft)
100 %
Durchschnitt _ 1,2 C 1,1 C 1,2 C 91 % 1005,8 hPa #1,0 l/m 0,9 km/h (0 Bft) SW - #10 min. #0,178 mm 53 W/m -0,1 C 1,2 C 2,9 km/h (1 Bft) 99 %
PRIVATE WETTERSTATION BILLIGHEIM-ALLFELD - www.neckar-odenwald-wetter.de - Holger Sonntag